N8IR-19 Weather Reports


Display with metric or nautical units.
time (UTC)temp
F
wind
direction
speed
MPH
gust
MPH
rain 1hr
in
rain 24hr
in
rain mn
in
humidity
%
barometer
mb
20260509070938 55 225 7.0 10.0 0.00 0.01 0.00 50 987.5
20260509070418 55 225 7.0 8.0 0.00 0.01 0.00 50 987.5
20260509065918 54 225 6.0 9.0 0.00 0.01 0.00 50 987.4
20260509065418 54 203 4.0 7.0 0.00 0.01 0.00 50 987.4
20260509064917 54 180 3.0 4.0 0.00 0.01 0.00 50 987.5
20260509064418 55 180 3.0 4.0 0.00 0.01 0.00 50 987.5
20260509063938 55 225 3.0 5.0 0.00 0.01 0.00 50 987.5
20260509063417 55 225 4.0 7.0 0.00 0.01 0.00 50 987.5
20260509062917 55 203 4.0 5.0 0.00 0.01 0.00 50 987.6
20260509062418 55 203 5.0 7.0 0.00 0.01 0.00 50 987.8
20260509061918 54 203 7.0 9.0 0.00 0.01 0.00 50 987.8
20260509061417 54 203 6.0 7.0 0.00 0.01 0.00 50 987.9
20260509060938 54 225 7.0 10.0 0.00 0.01 0.00 50 987.9
20260509060418 54 203 7.0 10.0 0.00 0.01 0.00 50 988.1
20260509055917 54 225 4.0 6.0 0.00 0.01 0.00 50 988.1
20260509055438 54 203 6.0 11.0 0.00 0.01 0.00 50 988.1
20260509054917 54 203 7.0 10.0 0.00 0.01 0.00 50 988.1
20260509054417 54 225 7.0 9.0 0.00 0.01 0.00 50 988.2
20260509053918 54 203 7.0 8.0 0.00 0.01 0.00 50 988.3
20260509053418 54 203 7.0 9.0 0.00 0.01 0.00 50 988.3
20260509052918 54 203 4.0 6.0 0.00 0.01 0.00 50 988.2
20260509052417 54 203 5.0 8.0 0.00 0.01 0.00 50 988.2
20260509051918 54 225 7.0 9.0 0.00 0.01 0.00 50 988.2
20260509051438 54 203 4.0 5.0 0.00 0.01 0.00 50 988.2
20260509050937 54 180 5.0 8.0 0.00 0.01 0.00 50 988.3
20260509050417 54 203 3.0 4.0 0.00 0.01 0.00 50 988.2
20260509045918 54 203 3.0 6.0 0.00 0.01 0.00 51 988.2
20260509045418 54 180 3.0 6.0 0.00 0.01 0.00 51 988.2
20260509044917 54 203 3.0 7.0 0.00 0.01 0.00 51 988.2
20260509044417 54 203 3.0 5.0 0.00 0.01 0.00 50 988.3
20260509043918 54 180 3.0 5.0 0.00 0.01 0.00 50 988.3
20260509043417 54 203 2.0 3.0 0.00 0.01 0.00 50 988.3
20260509042918 54 180 2.0 5.0 0.00 0.01 0.00 50 988.4
20260509042417 54 203 4.0 6.0 0.00 0.01 0.00 50 988.4
20260509041917 55 203 4.0 6.0 0.00 0.01 0.00 50 988.5
20260509041418 55 203 5.0 8.0 0.00 0.01 0.00 49 988.5
20260509040919 55 203 4.0 6.0 0.00 0.01 0.00 49 988.6
20260509040417 55 225 6.0 8.0 0.00 0.01 0.00 49 988.6
20260509035917 55 225 8.0 10.0 0.00 0.01 0.01 49 988.6
20260509035418 55 203 5.0 7.0 0.00 0.01 0.01 49 988.6
20260509034917 56 203 7.0 11.0 0.00 0.01 0.01 48 988.6
20260509034417 56 203 8.0 12.0 0.00 0.01 0.01 48 988.7
20260509033919 56 203 6.0 10.0 0.00 0.01 0.01 48 988.9
20260509033417 56 225 12.0 14.0 0.00 0.01 0.01 47 989.0
20260509032917 56 225 13.0 14.0 0.00 0.01 0.01 47 988.9
20260509032419 56 225 12.0 14.0 0.00 0.01 0.01 47 989.0
20260509031938 56 225 15.0 17.0 0.00 0.01 0.01 46 989.1
20260509031422 56 225 12.0 15.0 0.00 0.01 0.01 46 989.2
20260509030920 56 225 7.0 9.0 0.00 0.01 0.01 46 989.2
20260509030420 56 248 8.0 10.0 0.00 0.01 0.01 46 989.2
20260509025919 56 225 10.0 12.0 0.00 0.01 0.01 47 989.0
20260509025419 56 225 12.0 15.0 0.00 0.01 0.01 47 989.1
20260509024920 56 225 14.0 17.0 0.00 0.01 0.01 47 989.3
20260509024420 55 225 13.0 15.0 0.00 0.01 0.01 47 989.2
20260509023937 55 225 11.0 13.0 0.00 0.01 0.01 47 989.2
20260509023417 55 225 10.0 12.0 0.00 0.01 0.01 47 989.3
20260509022917 55 225 10.0 12.0 0.00 0.01 0.01 47 989.3
20260509022417 55 225 10.0 13.0 0.00 0.01 0.01 48 989.4
20260509021937 55 225 10.0 13.0 0.00 0.01 0.01 48 989.4
20260509021417 55 203 9.0 11.0 0.00 0.01 0.01 48 989.3
20260509020917 55 225 9.0 12.0 0.00 0.01 0.01 48 989.3
20260509020417 55 225 10.0 12.0 0.00 0.01 0.01 48 989.3
20260509015938 55 225 7.0 10.0 0.00 0.01 0.01 48 989.3
20260509015458 55 225 8.0 10.0 0.00 0.01 0.01 48 989.2
20260509014917 55 203 8.0 10.0 0.00 0.01 0.01 48 989.3
20260509014438 55 203 8.0 12.0 0.00 0.01 0.01 48 989.2
20260509013917 55 225 8.0 10.0 0.00 0.01 0.01 48 989.2
20260509013417 55 203 7.0 9.0 0.00 0.01 0.01 48 989.2
20260509012917 55 225 9.0 12.0 0.00 0.01 0.01 48 989.0
20260509012418 55 225 11.0 14.0 0.00 0.01 0.01 48 989.0
20260509011917 55 225 11.0 14.0 0.00 0.01 0.01 48 989.0
20260509011417 55 225 10.0 15.0 0.00 0.01 0.01 48 989.0
20260509010917 55 203 11.0 13.0 0.00 0.01 0.01 48 988.9
20260509010417 55 203 7.0 10.0 0.00 0.01 0.01 48 988.8
20260509005918 55 225 11.0 14.0 0.00 0.01 0.01 48 989.0
20260509005418 55 225 9.0 11.0 0.00 0.01 0.01 48 989.0
20260509004917 55 225 10.0 13.0 0.00 0.01 0.01 48 989.0
20260509004417 55 225 11.0 16.0 0.00 0.01 0.01 48 989.1
20260509004000 55 203 9.0 12.0 0.00 0.01 0.01 48 989.1
20260509003419 55 203 11.0 14.0 0.00 0.01 0.01 48 989.2
20260509002920 55 225 12.0 14.0 0.00 0.01 0.01 48 989.1
20260509002417 55 203 8.0 12.0 0.00 0.01 0.01 48 989.0
20260509001917 55 203 11.0 13.0 0.00 0.01 0.01 49 989.0
20260509001417 55 225 12.0 15.0 0.00 0.01 0.01 49 989.0
20260509000921 55 203 11.0 15.0 0.00 0.01 0.01 49 989.0
20260509000441 55 203 11.0 14.0 0.00 0.01 0.01 49 988.9
20260508235922 55 203 12.0 15.0 0.00 0.01 0.01 50 989.1
20260508235419 55 225 13.0 16.0 0.00 0.01 0.01 50 989.2
20260508234920 54 203 8.0 11.0 0.00 0.01 0.01 50 989.2
20260508234421 54 203 9.0 12.0 0.00 0.01 0.01 50 989.2
20260508233919 54 203 7.0 10.0 0.00 0.01 0.01 51 989.2
20260508233500 54 225 9.0 12.0 0.00 0.01 0.01 51 989.4
20260508232920 54 203 4.0 5.0 0.00 0.01 0.01 51 989.4
20260508232420 54 203 5.0 10.0 0.00 0.01 0.01 51 989.3
20260508231917 54 180 3.0 5.0 0.00 0.01 0.01 51 989.3
20260508231420 54 203 5.0 8.0 0.00 0.01 0.01 51 989.3
20260508230919 54 225 3.0 7.0 0.01 0.01 0.01 51 989.4
20260508230417 54 203 4.0 6.0 0.01 0.01 0.01 51 989.4
20260508225917 54 203 4.0 6.0 0.01 0.01 0.01 51 989.4
20260508225422 54 225 3.0 6.0 0.01 0.01 0.01 51 989.3
20260508224937 54 180 3.0 5.0 0.01 0.01 0.01 51 989.3
20260508224419 54 203 3.0 5.0 0.01 0.01 0.01 51 989.3
20260508223921 54 225 4.0 7.0 0.01 0.01 0.01 51 989.4
20260508223417 54 203 6.0 9.0 0.01 0.01 0.01 51 989.4
20260508222938 54 203 6.0 10.0 0.01 0.01 0.01 51 989.5
20260508222417 54 203 5.0 9.0 0.01 0.01 0.01 51 989.5
20260508221917 54 225 7.0 10.0 0.01 0.01 0.01 52 989.5
20260508221417 54 203 7.0 10.0 0.01 0.01 0.01 52 989.5
20260508220917 55 203 4.0 7.0 0.00 0.00 0.00 53 989.4
20260508220437 55 203 5.0 11.0 0.00 0.00 0.00 53 989.6
20260508215917 55 180 5.0 8.0 0.00 0.00 0.00 54 989.5
20260508215417 55 203 3.0 5.0 0.00 0.00 0.00 54 989.4
20260508214937 55 203 4.0 8.0 0.00 0.00 0.00 54 989.4
20260508214437 55 180 6.0 11.0 0.00 0.00 0.00 54 989.4
20260508213917 55 180 2.0 4.0 0.00 0.00 0.00 55 989.5
20260508213417 55 203 5.0 8.0 0.00 0.00 0.00 55 989.5
20260508212916 55 203 4.0 7.0 0.00 0.00 0.00 55 989.5
20260508212417 55 203 8.0 10.0 0.00 0.00 0.00 55 989.6
20260508211957 55 203 8.0 10.0 0.00 0.00 0.00 55 989.7
20260508211419 55 203 9.0 12.0 0.00 0.00 0.00 55 989.7
20260508210939 55 225 8.0 10.0 0.00 0.00 0.00 55 989.6
20260508210418 55 225 7.0 8.0 0.00 0.00 0.00 55 989.5
20260508205919 55 225 8.0 10.0 0.00 0.00 0.00 55 989.5
20260508205419 55 225 7.0 8.0 0.00 0.00 0.00 55 989.5
20260508204959 56 225 6.0 8.0 0.00 0.00 0.00 55 989.6
20260508204416 56 225 8.0 11.0 0.00 0.00 0.00 55 989.6
20260508203919 56 225 10.0 13.0 0.00 0.00 0.00 55 989.8
20260508203417 56 225 12.0 15.0 0.00 0.00 0.00 55 989.8
20260508202919 56 225 8.0 12.0 0.00 0.00 0.00 54 989.9
20260508202420 56 225 8.0 11.0 0.00 0.00 0.00 55 990.1
20260508201917 56 225 9.0 13.0 0.00 0.00 0.00 55 990.2
20260508201438 57 225 11.0 15.0 0.00 0.00 0.00 55 990.3
20260508200919 57 225 9.0 15.0 0.00 0.00 0.00 55 990.3
20260508200419 57 225 10.0 12.0 0.00 0.00 0.00 55 990.3
20260508195917 57 225 13.0 15.0 0.00 0.00 0.00 55 990.3
20260508195420 57 225 13.0 15.0 0.00 0.00 0.00 55 990.4
20260508194919 57 225 13.0 16.0 0.00 0.00 0.00 55 990.4
20260508194417 57 203 5.0 9.0 0.00 0.00 0.00 54 990.3
20260508193917 58 203 14.0 20.0 0.00 0.00 0.00 54 990.5
20260508193417 59 225 12.0 21.0 0.00 0.00 0.00 53 990.7
20260508192919 59 225 13.0 15.0 0.00 0.00 0.00 52 990.7
20260508192416 59 225 15.0 19.0 0.00 0.00 0.00 51 990.6
20260508191920 60 225 14.0 16.0 0.00 0.00 0.00 50 990.6
20260508191420 60 225 11.0 14.0 0.00 0.00 0.00 51 990.6
20260508190920 59 248 12.0 16.0 0.00 0.00 0.00 51 990.7
20260508190417 59 203 13.0 18.0 0.00 0.00 0.00 50 990.7
20260508185919 59 248 5.0 10.0 0.00 0.00 0.00 48 990.7
20260508185500 60 225 9.0 12.0 0.00 0.00 0.00 48 990.7
20260508184916 60 225 11.0 14.0 0.00 0.00 0.00 49 990.7
20260508184417 60 248 4.0 6.0 0.00 0.00 0.00 47 990.8
20260508183916 60 203 5.0 8.0 0.00 0.00 0.00 48 990.8
20260508183439 60 248 5.0 8.0 0.00 0.00 0.00 44 990.8
20260508182916 60 225 11.0 13.0 0.00 0.00 0.00 47 990.9
20260508182417 61 225 4.0 6.0 0.00 0.00 0.00 46 991.2
20260508181916 60 225 16.0 18.0 0.00 0.00 0.00 48 990.9
20260508181416 60 248 3.0 5.0 0.00 0.00 0.00 45 991.0
20260508180916 59 225 6.0 8.0 0.00 0.00 0.00 49 991.1
20260508180417 59 225 5.0 7.0 0.00 0.00 0.00 46 991.1
20260508175917 60 225 7.0 9.0 0.00 0.00 0.00 48 991.2
20260508175457 59 225 13.0 18.0 0.00 0.00 0.00 48 991.3
20260508174916 59 225 8.0 11.0 0.00 0.00 0.00 47 991.3
20260508174436 59 225 5.0 7.0 0.00 0.00 0.00 49 991.5
20260508173916 59 225 12.0 13.0 0.00 0.00 0.00 49 991.4
20260508173418 58 203 6.0 10.0 0.00 0.00 0.00 49 991.5
20260508172916 58 225 6.0 9.0 0.00 0.00 0.00 48 991.6
20260508172436 58 225 6.0 8.0 0.00 0.00 0.00 48 991.7
20260508171917 58 225 6.0 8.0 0.00 0.00 0.00 48 991.9
20260508171416 58 225 8.0 9.0 0.00 0.00 0.00 49 991.9
20260508170917 58 248 5.0 8.0 0.00 0.00 0.00 48 992.1
20260508170416 58 225 5.0 7.0 0.00 0.00 0.00 47 992.2
20260508165936 58 225 7.0 8.0 0.00 0.00 0.00 49 992.1
20260508165416 57 225 9.0 11.0 0.00 0.00 0.00 50 992.2
20260508164917 57 225 7.0 10.0 0.00 0.00 0.00 50 992.4
20260508164418 56 225 5.0 7.0 0.00 0.00 0.00 49 992.5
20260508163918 56 225 6.0 9.0 0.00 0.00 0.00 49 992.6
20260508163418 56 225 3.0 4.0 0.00 0.00 0.00 49 992.6
20260508162919 56 225 9.0 12.0 0.00 0.00 0.00 49 992.6
20260508162419 56 225 6.0 10.0 0.00 0.00 0.00 49 992.5
20260508161918 56 248 8.0 9.0 0.00 0.00 0.00 49 992.6
20260508161419 56 248 3.0 4.0 0.00 0.00 0.00 49 992.6
20260508160918 56 225 6.0 8.0 0.00 0.00 0.00 49 992.5
20260508160418 55 0 3.0 5.0 0.00 0.00 0.00 51 992.5
20260508155918 55 0 3.0 4.0 0.00 0.00 0.00 50 992.5
20260508155419 56 338 1.0 4.0 0.00 0.00 0.00 50 992.6
20260508154918 56 293 2.0 3.0 0.00 0.00 0.00 50 992.7
20260508154418 56 315 3.0 4.0 0.00 0.00 0.00 50 992.7
20260508153919 55 270 3.0 6.0 0.00 0.00 0.00 50 992.6
20260508153438 55 338 4.0 6.0 0.00 0.00 0.00 51 992.6
20260508152918 55 293 3.0 5.0 0.00 0.00 0.00 50 992.7
20260508152439 55 0 3.0 5.0 0.00 0.00 0.00 50 992.7
20260508151918 55 23 4.0 5.0 0.00 0.00 0.00 50 992.7
20260508151438 55 293 2.0 4.0 0.00 0.00 0.00 50 992.7
20260508150938 55 270 3.0 6.0 0.00 0.00 0.00 49 992.6
20260508150418 56 293 3.0 3.0 0.00 0.00 0.00 49 992.6
20260508145938 56 270 3.0 6.0 0.00 0.00 0.00 48 992.5
20260508145418 56 270 4.0 7.0 0.00 0.00 0.00 49 992.5
20260508144918 56 270 2.0 4.0 0.00 0.00 0.00 49 992.4
20260508144420 55 270 4.0 6.0 0.00 0.00 0.00 49 992.6
20260508143918 55 270 3.0 4.0 0.00 0.00 0.00 49 992.6
20260508143438 55 270 6.0 8.0 0.00 0.00 0.00 49 992.6
20260508142918 55 270 3.0 3.0 0.00 0.00 0.00 49 992.6
20260508142421 54 270 3.0 4.0 0.00 0.00 0.00 49 992.7
20260508141920 54 248 4.0 5.0 0.00 0.00 0.00 50 992.7
20260508141418 54 270 4.0 6.0 0.00 0.00 0.00 49 992.7
20260508140920 54 248 4.0 5.0 0.00 0.00 0.00 49 992.7
20260508140418 54 248 3.0 5.0 0.00 0.00 0.00 50 992.7
20260508135939 54 270 4.0 7.0 0.00 0.00 0.00 50 992.7
20260508135420 54 270 6.0 9.0 0.00 0.00 0.00 50 992.7
20260508134918 54 270 8.0 10.0 0.00 0.00 0.00 50 992.8
20260508134419 53 270 7.0 8.0 0.00 0.00 0.00 49 992.8
20260508133918 53 270 7.0 8.0 0.00 0.00 0.00 49 992.8
20260508133418 53 248 7.0 8.0 0.00 0.00 0.00 51 992.7
20260508132918 53 270 6.0 7.0 0.00 0.00 0.00 50 992.7
20260508132419 53 270 5.0 7.0 0.00 0.00 0.00 50 992.7
20260508131918 52 270 8.0 9.0 0.00 0.00 0.00 50 992.8
20260508131418 52 270 6.0 8.0 0.00 0.00 0.00 51 992.8
20260508130918 52 248 6.0 8.0 0.00 0.00 0.00 50 992.8
20260508130418 52 225 4.0 5.0 0.00 0.00 0.00 50 992.8
20260508125918 52 225 6.0 8.0 0.00 0.00 0.00 50 992.8
20260508125418 52 248 5.0 7.0 0.00 0.00 0.00 51 992.9
20260508124918 51 248 5.0 8.0 0.00 0.00 0.00 50 992.9
20260508124418 51 248 5.0 8.0 0.00 0.00 0.00 51 992.9
20260508123918 51 225 5.0 7.0 0.00 0.00 0.00 50 992.8
20260508123418 51 248 5.0 7.0 0.00 0.00 0.00 49 992.8
20260508122958 51 225 5.0 7.0 0.00 0.00 0.00 49 992.8
20260508122418 51 248 4.0 7.0 0.00 0.00 0.00 49 992.8
20260508121919 51 225 4.0 6.0 0.00 0.00 0.00 49 992.7
20260508121418 51 248 7.0 10.0 0.00 0.00 0.00 51 992.6
20260508120918 50 248 7.0 9.0 0.00 0.00 0.00 50 992.5
20260508120418 50 225 8.0 9.0 0.00 0.00 0.00 50 992.5
20260508115959 50 248 7.0 9.0 0.00 0.00 0.00 50 992.4
20260508115418 50 225 9.0 12.0 0.00 0.00 0.00 50 992.5
20260508114918 50 248 9.0 11.0 0.00 0.00 0.00 50 992.4
20260508114417 50 225 11.0 13.0 0.00 0.00 0.00 50 992.3
20260508113918 50 225 9.0 11.0 0.00 0.00 0.00 50 992.2
20260508113439 50 225 10.0 13.0 0.00 0.00 0.00 50 992.0
20260508112918 50 225 8.0 10.0 0.00 0.00 0.00 50 992.0
20260508112418 50 225 8.0 10.0 0.00 0.00 0.00 50 992.0
20260508111918 50 225 9.0 10.0 0.00 0.00 0.00 50 991.9
20260508111418 50 225 9.0 11.0 0.00 0.00 0.00 50 991.9
20260508110917 50 225 10.0 12.0 0.00 0.00 0.00 51 991.9
20260508110418 50 225 10.0 11.0 0.00 0.00 0.00 51 991.8
20260508105918 50 203 10.0 11.0 0.00 0.00 0.00 51 991.7
20260508105417 50 203 9.0 12.0 0.00 0.00 0.00 51 991.7
20260508104918 50 203 10.0 12.0 0.00 0.00 0.00 51 991.8
20260508104418 50 225 8.0 10.0 0.00 0.00 0.00 51 991.8
20260508103918 50 225 8.0 9.0 0.00 0.00 0.00 51 991.9
20260508103418 50 248 5.0 7.0 0.00 0.00 0.00 50 991.8
20260508102918 50 248 2.0 3.0 0.00 0.00 0.00 50 991.8
20260508102418 50 225 8.0 10.0 0.00 0.00 0.00 51 991.8
20260508101918 50 225 6.0 9.0 0.00 0.00 0.00 51 991.8
20260508101417 50 225 5.0 6.0 0.00 0.00 0.00 51 991.7
20260508100918 50 225 4.0 5.0 0.00 0.00 0.00 51 991.7
20260508100417 50 225 6.0 9.0 0.00 0.00 0.00 52 991.7
20260508095918 49 225 7.0 9.0 0.00 0.00 0.00 52 991.7
20260508095419 49 225 8.0 12.0 0.00 0.00 0.00 52 991.7
20260508094938 49 203 9.0 11.0 0.00 0.00 0.00 53 991.7
20260508094417 49 203 10.0 13.0 0.00 0.00 0.00 54 991.7
20260508093918 49 203 8.0 13.0 0.00 0.00 0.00 54 991.7
20260508093417 48 225 8.0 9.0 0.00 0.00 0.00 55 991.9
20260508092958 48 225 9.0 11.0 0.00 0.00 0.00 56 991.9
20260508092418 48 225 7.0 8.0 0.00 0.00 0.00 56 991.9
20260508091917 48 225 7.0 8.0 0.00 0.00 0.00 55 991.9
20260508091438 48 225 6.0 6.0 0.00 0.00 0.00 55 991.9
20260508090918 48 225 7.0 8.0 0.00 0.00 0.00 55 991.9
20260508090418 48 225 5.0 6.0 0.00 0.00 0.00 55 991.8
20260508085917 48 248 5.0 6.0 0.00 0.00 0.00 55 991.9
20260508085418 48 225 5.0 7.0 0.00 0.00 0.00 56 991.9
20260508084937 48 225 6.0 7.0 0.00 0.00 0.00 56 991.9
20260508084417 48 225 8.0 10.0 0.00 0.00 0.00 55 991.9
20260508083917 48 225 7.0 10.0 0.00 0.00 0.00 56 991.9
20260508083417 48 225 6.0 8.0 0.00 0.00 0.00 56 991.9
20260508082917 48 203 7.0 8.0 0.00 0.00 0.00 56 992.0
20260508082418 48 225 8.0 10.0 0.00 0.00 0.00 56 992.0
20260508081918 48 225 8.0 11.0 0.00 0.00 0.00 56 992.1
20260508081417 48 225 9.0 11.0 0.00 0.00 0.00 56 992.1
20260508080918 48 225 10.0 12.0 0.00 0.00 0.00 56 992.1
20260508080417 48 203 9.0 11.0 0.00 0.00 0.00 56 992.2
20260508075917 48 225 10.0 12.0 0.00 0.00 0.00 56 992.1
20260508075437 48 225 10.0 12.0 0.00 0.00 0.00 56 992.2
20260508074918 48 203 7.0 10.0 0.00 0.00 0.00 57 992.1
20260508074418 48 225 8.0 11.0 0.00 0.00 0.00 57 992.1
20260508073918 48 225 10.0 11.0 0.00 0.00 0.00 56 992.2
20260508073438 48 225 9.0 10.0 0.00 0.00 0.00 56 992.2
20260508072938 49 225 8.0 9.0 0.00 0.00 0.00 57 992.2
20260508072417 49 225 7.0 9.0 0.00 0.00 0.00 57 992.2
20260508071917 49 225 9.0 12.0 0.00 0.00 0.00 56 992.3
20260508071419 49 225 8.0 10.0 0.00 0.00 0.00 57 992.4